This demonstration page uses our WeatherBlox Daily Observations layout. Learn more.

Left ArrowRight Arrow

39.51506, -84.39828

Hourly Observations for March 28, 2018

Temp ( °F °C ) Dew Point ( °F °C ) Humidity (%) Winds ( mph kmh ) Pressure ( in mb ) Visibility ( mi km ) Precip ( " mm )
12:15 am 00:15 Cloudy with Light Rain 53 11.8 53 11.7 99 99 SSW 3 6 30.03 1017 1 1.60934 N/A
12:35 am 00:35 Cloudy with Drizzle 53 11.9 53 11.8 99 99 N N/A 30.03 1017 1.25 2.011675 N/A
12:55 am 00:55 Cloudy with Drizzle 53 11.9 53 11.7 99 99 N N/A 30.03 1017 0.75 1.207005 0.01 0.254
1:15 am 01:15 Cloudy with Light Rain 53 11.8 53 11.7 99 99 N N/A 30.03 1017 0.75 1.207005 0.01 0.254
1:35 am 01:35 Cloudy with Light Rain 52 11.3 52 11.2 99 99 N N/A 30.03 1017 0.5 0.80467 0.02 0.508
1:55 am 01:55 Cloudy with Light Rain 52 11.3 52 11.2 99 99 N N/A 30 1016 0.5 0.80467 0.03 0.762
2:15 am 02:15 Cloudy with Light Rain 52 11.1 52 11 99 99 N N/A 30 1016 0.5 0.80467 0.01 0.254
2:35 am 02:35 Cloudy with Light Rain 52 10.9 51 10.8 99 99 N N/A 30 1016 0.5 0.80467 0.02 0.508
2:55 am 02:55 Cloudy with Light Rain 52 11.3 52 11.3 100 100 N N/A 30 1016 1 1.60934 0.04 1.016
3:15 am 03:15 Cloudy with Light Rain 52 11.3 52 11.2 99 99 N N/A 30 1016 0.75 1.207005 0.02 0.508
3:35 am 03:35 Cloudy with Light Rain 51 10.8 51 10.7 99 99 N N/A 30 1016 0.75 1.207005 0.03 0.762
3:55 am 03:55 Cloudy with Light Rain 52 10.9 51 10.8 99 99 N N/A 30 1016 1 1.60934 0.04 1.016
4:15 am 04:15 Cloudy with Light Rain 51 10.7 51 10.7 100 100 N N/A 30 1016 1.25 2.011675 0.01 0.254
4:35 am 04:35 Cloudy with Light Rain 51 10.8 51 10.7 99 99 N N/A 30 1016 1.25 2.011675 0.02 0.508
4:55 am 04:55 Cloudy with Light Rain 52 10.9 52 10.9 100 100 N N/A 29.97 1015 1 1.60934 0.05 1.27
5:15 am 05:15 Cloudy with Light Rain 51 10.8 51 10.8 100 100 N N/A 29.97 1015 0.75 1.207005 0.02 0.508
5:35 am 05:35 Cloudy with Light Rain 51 10.8 51 10.7 99 99 N N/A 29.97 1015 1 1.60934 0.03 0.762
5:55 am 05:55 Cloudy with Light Rain 51 10.6 51 10.5 99 99 N N/A 29.97 1015 1 1.60934 0.05 1.27
6:15 am 06:15 Cloudy with Light Rain 51 10.6 51 10.5 99 99 ENE 3 6 29.94 1014 0.75 1.207005 N/A
6:35 am 06:35 Cloudy with Light Rain 51 10.7 51 10.7 100 100 N N/A 29.97 1015 0.75 1.207005 N/A
6:55 am 06:55 Cloudy with Rain 51 10.7 51 10.6 99 99 N N/A 30 1016 2.5 4.02335 0.03 0.762
7:15 am 07:15 Cloudy with Rain 52 11 52 10.9 99 99 N 5 7 30 1016 2.5 4.02335 0.03 0.762
7:35 am 07:35 Cloudy with Light Rain 51 10.4 51 10.3 99 99 N 6 9 30 1016 2.5 4.02335 0.05 1.27
7:55 am 07:55 Cloudy with Light Rain 50 10 50 9.9 99 99 NNE 8 13 30 1016 10 16.0934 0.06 1.524
8:15 am 08:15 Cloudy with Light Rain 50 9.8 49 9.6 99 99 NE 7 11 29.97 1015 7 11.26538 0.01 0.254
8:35 am 08:35 Cloudy with Light Rain 49 9.7 49 9.4 98 98 NNE 6 9 30 1016 10 16.0934 0.01 0.254
8:55 am 08:55 Cloudy with Light Rain 50 9.8 49 9.5 98 98 NE 6 9 29.97 1015 10 16.0934 0.01 0.254
9:15 am 09:15 Cloudy with Light Rain 50 10.1 49 9.7 97 97 NNE 5 7 29.97 1015 7 11.26538 N/A
9:35 am 09:35 Cloudy 50 10.2 50 9.8 97 97 N N/A 29.97 1015 10 16.0934 N/A
9:55 am 09:55 Cloudy with Drizzle 51 10.5 50 10 97 97 N N/A 29.97 1015 10 16.0934 N/A
10:15 am 10:15 Cloudy with Light Rain 51 10.8 51 10.4 97 97 N N/A 29.97 1015 7 11.26538 N/A
10:35 am 10:35 Cloudy with Light Rain 52 10.9 51 10.5 97 97 WNW 3 6 29.97 1015 7 11.26538 N/A
10:55 am 10:55 Cloudy with Mist and Fog 52 11.2 51 10.8 97 97 NNW 5 7 30 1016 7 11.26538 0.01 0.254
11:15 am 11:15 Cloudy with Light Rain 53 11.5 52 11.2 98 98 N 5 7 29.97 1015 5 8.0467 N/A
11:35 am 11:35 Cloudy with Light Rain 53 11.8 53 11.4 97 97 NNW 3 6 30 1016 5 8.0467 N/A
11:55 am 11:55 Cloudy with Rain 54 12.1 53 11.6 97 97 N N/A 30 1016 5 8.0467 N/A
12:15 pm 12:15 Cloudy with Light Rain 54 12.3 53 11.8 97 97 N N/A 29.97 1015 4 6.43736 N/A
12:35 pm 12:35 Cloudy with Drizzle 54 12.4 53 11.9 97 97 NNE 3 6 29.97 1015 4 6.43736 N/A
12:55 pm 12:55 Cloudy 55 12.6 54 12 96 96 NNE 3 6 29.97 1015 10 16.0934 N/A
1:15 pm 13:15 Cloudy 55 12.8 54 12.2 96 96 NNE 3 6 29.94 1014 10 16.0934 N/A
1:35 pm 13:35 Cloudy 55 12.8 54 12.1 96 96 N N/A 29.97 1015 10 16.0934 N/A
1:55 pm 13:55 Cloudy 55 12.9 54 12.3 96 96 NNE 5 7 29.94 1014 10 16.0934 N/A
2:15 pm 14:15 Cloudy 55 13 54 12.4 96 96 NNE 5 7 29.94 1014 10 16.0934 N/A
2:35 pm 14:35 Cloudy 56 13.1 55 12.5 96 96 NE 3 6 29.94 1014 10 16.0934 N/A
2:55 pm 14:55 Cloudy 56 13.2 55 12.5 96 96 NE 3 6 29.91 1013 10 16.0934 N/A
3:15 pm 15:15 Cloudy 56 13.3 55 12.6 96 96 NE 3 6 29.91 1013 10 16.0934 N/A
3:35 pm 15:35 Cloudy with Light Rain 56 13.4 55 12.6 95 95 N N/A 29.91 1013 10 16.0934 N/A
3:55 pm 15:55 Cloudy with Light Rain 54 12.3 53 11.5 95 95 N 8 13 29.91 1013 5 8.0467 N/A
4:15 pm 16:15 Cloudy with Light Rain 54 12 53 11.4 96 96 NE 5 7 29.91 1013 2 3.21868 0.01 0.254
4:35 pm 16:35 Cloudy with Light Rain 53 11.8 52 11.3 97 97 N 6 9 29.94 1014 4 6.43736 0.01 0.254
4:55 pm 16:55 Cloudy with Light Rain 54 12 53 11.4 96 96 N 7 11 29.94 1014 7 11.26538 0.01 0.254
5:15 pm 17:15 Cloudy with Light Rain 54 12 53 11.5 97 97 N 5 7 29.91 1013 3.5 5.63269 N/A
5:35 pm 17:35 Cloudy with Mist and Fog 53 11.9 52 11.3 96 96 N 3 6 29.91 1013 5 8.0467 N/A
5:55 pm 17:55 Cloudy with Drizzle 54 12 53 11.4 96 96 NNE 3 6 29.94 1014 5 8.0467 N/A
6:15 pm 18:15 Cloudy with Mist and Fog 54 12 53 11.4 96 96 NNE 3 6 29.91 1013 5 8.0467 N/A
6:35 pm 18:35 Cloudy with Mist and Fog 53 11.9 52 11.3 96 96 NNW 3 6 29.94 1014 5 8.0467 N/A
6:55 pm 18:55 Cloudy with Mist and Fog 53 11.8 52 11.3 97 97 NNE 3 6 29.94 1014 4 6.43736 N/A
7:15 pm 19:15 Cloudy with Mist and Fog 53 11.8 52 11.3 97 97 NNE 5 7 29.91 1013 3.5 5.63269 N/A
7:35 pm 19:35 Cloudy with Mist and Fog 53 11.7 52 11.3 97 97 N 3 6 29.94 1014 4 6.43736 N/A
7:55 pm 19:55 Cloudy with Light Rain 53 11.7 52 11.3 97 97 N N/A 29.94 1014 3.5 5.63269 N/A
8:15 pm 20:15 Cloudy with Light Rain 53 11.6 52 11.3 98 98 N N/A 29.94 1014 3.5 5.63269 N/A
8:35 pm 20:35 Cloudy with Mist and Fog 53 11.5 52 11.2 98 98 N N/A 29.94 1014 3 4.82802 N/A
8:55 pm 20:55 Cloudy with Mist and Fog 53 11.5 52 11.3 99 99 N 5 7 29.94 1014 2.5 4.02335 N/A
9:15 pm 21:15 Cloudy with Light Rain 53 11.4 52 11.2 99 99 N 3 6 29.94 1014 1.75 2.816345 N/A
9:35 pm 21:35 Cloudy with Mist and Fog 53 11.4 52 11.2 99 99 N 3 6 29.94 1014 1.75 2.816345 N/A
9:55 pm 21:55 Cloudy with Light Rain 53 11.4 52 11.3 99 99 N N/A 29.94 1014 1.5 2.41401 0.01 0.254
10:15 pm 22:15 Cloudy with Light Rain 53 11.4 52 11.2 99 99 N N/A 29.94 1014 1.75 2.816345 N/A
10:35 pm 22:35 Cloudy with Light Rain 53 11.4 52 11.3 99 99 N N/A 29.94 1014 1.5 2.41401 N/A
10:55 pm 22:55 Cloudy with Light Rain 52 11.2 52 11.1 99 99 N N/A 29.94 1014 0.5 0.80467 N/A
11:15 pm 23:15 Cloudy with Fog 52 11 52 10.9 99 99 N N/A 29.94 1014 0.25 0.402335 N/A
11:35 pm 23:35 Cloudy with Fog 52 10.9 51 10.8 99 99 N N/A 29.94 1014 0.25 0.402335 N/A
11:55 pm 23:55 Cloudy with Fog 51 10.8 51 10.7 99 99 N N/A 29.94 1014 0.25 0.402335 N/A

Powered by AerisWeather